STARLINK-32957, 63124

Orbit data source: Space-Track

STARLINK-32957, 63124 is a payload satellite owned by SpaceX/Seattle (US) in LEO that was launched on Thu, 27 Feb 2025 UTC via an FALCON 9 launch vehicle from the Air Force Eastern Test Range (AFETR). Payload-class satellites include a variety of spacecraft equipped with specific instruments for various scientific and technological missions. These include communications satellites like Starlink; space stations such as the ISS; scientific satellites like the Hubble; Earth observation satellites from companies like Planet Labs, Umbra, and HawkEye 360; GPS; miniature CubeSats for education and research; and military/defense satellites.

Loading next visibility...
Identifier
63124, 2025-039W
Orbit
LEO
Country
Flag of USUS
Related business
Manufacturer
SpaceX/Seattle
Mission
Operational Commercial Communications
Bus & Motor
STARLINK V2M, Unknown motor
Mass
730 kg wet, ~700 kg dry
Launch date (UTC)
2025-02-27 (1 year ago)
Launch vehicle
FALCON 9
Launch site
Air Force Eastern Test Range (AFETR)
Object type
Payload
Rocket body
Debris
Shape & HBR
Box + 2 Pan, 17.7 m
Radar Cross Section
33.884 m², Large (>1 m²)

Expand to show TLE details & history
Last TLE update: 16 hours ago

TLE from 16 hours ago
0 STARLINK-32957
1 63124U 25039W   26207.36582687  .00011807  00000-0  43793-3 0  9993
2 63124  43.0015 309.7788 0001883 272.4118  87.6519 15.27577938 79273
Epoch: 2026-07-26T08:46Z
TLE epoch observation values (Epoch: 2026-07-26T08:46:47.441Z)
Latitude
0.00004°
Longitude
-125.98362°
Altitude
482.778 km
Speed
7.626 km/s
True Right ascension
20h 39m 06s
True Declination
0° 00' 00"
Sunlit
Object was in full shadow at epoch
Visualization orbit readout
Latitude
Unknown
Longitude
Unknown
Altitude
Unknown
Speed
Unknown
Apparent Right ascension
Unknown
Apparent Declination
Unknown
Sunlit
N/A
Visualization observer readout
Local Sidereal Time
14:29:31
Azimuth
Unknown
Elevation
Unknown
Doppler factor
Unknown
Orbital elements
Apogee altitude
486.293 km
Perigee altitude
483.708 km
Semi-major axis
6,863.137 km
Eccentricity
0.00019
Inclination
43.0015°
RAAN
309.7788°
Arg. of periapsis
272.4118°
True anomaly
87.67346°
Mean anomaly
87.6519°
Eccentric anomaly
87.66268°
Mean motion
3.81733 °/min
Orbital period
94.31 mins
BSTAR
0.00043793
Loading maneuver chart data...
Computing Atmospheric mass density...
Loading historical data...
Loading historical data...
Loading historical data...
Loading historical data...
Loading historical data...
Loading historical data...
Loading historical data...

Documentation

Showing up to 5 results
|